Vertical_Velocity
1 1 2 3 2 1 -1 0 1 1 -0 0 1 1 1 1 1 1 0 -1 0 1 1 0 0 0 0 0 0 0 0 0 -0 -0 -0 -0 0 1 2 2 1 -0 -1 -0 1 1 1 0 -1 -0 -0 0 1 1 0 -0 -0 0 -0 -1 -1 -1 -1 -1 -1 -1 -0 -1 -1 -1 -1 -1 -1 -1 -1 -1 -1 -1 -0 -0 -0 -0 0 0 0 0 -0 -0 -0 -0 -1 -1 -1 -1 -1 -0 -0 -0 -0 -0 -0 -0 -0
1 2 2 3 3 1 -2 -1 0 1 1 1 1 1 1 1 2 1 0 -1 0 1 1 0 0 0 0 0 0 0 0 -0 -0 -0 -0 -0 1 2 2 2 1 -0 -1 -0 1 2 1 0 -0 -0 -0 0 1 1 -0 -1 -1 -0 -0 -1 -1 -1 -1 -1 -1 -1 -1 -1 -2 -1 -1 -1 -1 -1 -1 -1 -1 -1 -0 -0 -0 0 0 0 0 0 -0 -0 -0 -0 -1 -1 -1 -1 -1 -0 -0 -0 -0 -0 -0 -0 -0
1 2 3 4 3 2 -1 -1 -0 1 1 2 2 1 1 1 2 1 -0 -0 0 1 1 1 0 0 0 0 0 0 0 -0 -0 -0 -0 0 1 2 2 1 0 -0 -1 -0 1 2 2 1 -0 -0 -1 -0 0 1 0 -1 -1 -1 -1 -1 -1 -1 -1 -1 -1 -1 -1 -2 -2 -1 -1 -1 -1 -1 -2 -1 -1 -1 -0 -0 0 0 0 0 0 0 -0 -0 -0 -0 -0 -0 -0 -0 -0 -0 -0 -0 -0 -0 -0 -0 -0
1 2 3 4 3 2 -1 -1 -0 0 2 2 2 1 1 1 1 1 -0 -0 1 1 1 1 1 0 0 0 0 -0 -0 -0 -0 -0 -0 0 1 2 2 1 -0 -1 -1 0 1 2 1 0 -0 -1 -1 -1 -0 1 1 -1 -2 -2 -1 -1 -1 -1 -1 -1 -1 -1 -2 -2 -2 -1 -1 -1 -1 -1 -1 -1 -0 -0 0 0 0 0 1 0 0 -0 -0 -0 -0 -0 -0 -0 -0 -0 0 0 0 0 -0 -0 -0 -0 -0
1 2 3 4 3 2 -1 -1 -0 1 2 2 1 1 1 1 1 1 -0 0 1 2 1 0 0 0 0 0 0 -0 -0 -0 -0 -0 -0 1 2 2 1 0 -0 -1 -1 1 2 2 1 -0 -1 -1 -1 -1 -0 1 1 0 -1 -1 -1 -1 -1 -1 -1 -1 -1 -2 -2 -2 -1 -1 -0 -0 -1 -1 -1 -0 -0 0 0 0 0 0 0 0 0 -0 -0 -0 -0 -0 -0 -0 -0 0 0 0 0 0 -0 -0 -0 -0 -0
1 2 3 4 3 2 -0 -0 0 1 2 1 1 1 2 2 1 -0 -1 0 2 2 1 1 0 0 0 0 0 0 -0 -0 -0 -0 0 1 2 2 1 0 -0 -1 -0 1 2 2 1 -0 -0 -1 -1 -1 -1 0 1 1 0 -1 -1 -1 -1 -1 -1 -1 -2 -2 -2 -1 -1 -0 -0 -0 -1 -1 -0 -0 0 0 0 0 0 0 0 -0 0 0 0 0 0 -0 -0 -0 0 0 0 0 0 -0 -0 -0 -0 -0 -1
1 1 3 3 3 2 0 0 1 1 1 1 1 1 2 2 2 -0 -2 -1 1 2 2 1 1 0 0 0 0 0 0 0 0 0 1 2 2 2 1 0 -0 -0 0 2 2 2 0 0 -0 -0 -1 -1 -0 -0 -0 -0 -1 -1 -1 -1 -1 -0 -1 -2 -2 -2 -1 -0 0 0 -0 -0 -0 -0 0 0 0 0 0 0 0 -0 -0 -0 0 0 0 0 0 -0 -0 -0 -0 0 0 -0 -0 -0 -0 -0 -0 -1 -1
1 1 2 3 2 1 1 1 1 1 1 0 0 1 2 2 2 1 -1 -1 -0 1 2 1 1 1 0 0 0 1 1 0 0 0 1 2 2 2 1 0 -0 -0 1 1 2 1 0 0 0 -0 -0 -0 -0 -0 -1 -1 -1 -1 -1 -1 -1 -1 -1 -2 -2 -1 -0 0 0 0 -0 -0 -0 0 0 0 0 0 0 0 0 0 0 0 0 0 0 0 0 -0 -0 -0 -0 -0 -0 -0 -0 -0 -0 -0 -1 -1 -1
0 1 2 3 2 1 1 1 2 2 1 0 1 1 2 2 2 1 1 -0 -0 0 1 1 1 0 0 0 1 1 0 0 0 1 1 2 2 1 0 -0 -1 -0 1 1 1 0 0 0 0 -0 -1 -0 -0 -1 -1 -1 -2 -1 -1 -1 -1 -1 -2 -2 -1 -0 1 1 0 -0 -1 -0 0 0 0 0 0 0 0 0 0 0 0 0 0 0 0 0 0 -0 -0 -0 -0 -0 -0 -0 -0 -0 -0 -1 -1 -1 -1
1 1 2 2 1 1 1 2 2 2 1 1 1 1 2 2 2 2 2 1 0 0 0 0 -0 -0 -0 0 0 0 0 0 0 1 1 2 2 1 -0 -1 -1 -0 1 1 0 -0 -0 0 -0 -1 -1 -0 -0 -1 -2 -2 -1 -1 -1 -1 -2 -2 -2 -1 -0 0 1 0 -0 -0 -1 -0 0 0 0 0 0 0 0 0 0 0 0 0 0 0 0 0 -0 -0 -0 -0 -0 -0 -0 -0 -0 -0 -1 -1 -1 -1 -1
1 1 1 1 1 1 2 2 2 1 1 1 1 1 2 2 2 2 2 1 1 0 0 -0 -0 -0 -0 0 0 0 -0 0 0 1 1 2 1 1 -1 -1 -1 0 1 1 0 -0 -0 -0 -1 -1 -0 -0 -0 -1 -2 -2 -1 -1 -1 -2 -2 -2 -2 -1 0 1 1 0 -0 -1 -0 -0 0 0 0 0 0 0 0 0 0 0 0 0 0 0 0 0 -0 -0 -0 -0 -0 -0 -0 -0 -0 -1 -1 -1 -1 -1 -1
1 1 1 0 0 1 2 2 2 1 1 1 1 1 1 2 2 2 2 1 1 1 0 0 0 0 0 0 0 0 0 0 0 1 1 1 1 0 -1 -1 -1 0 1 1 0 -0 -0 -1 -1 -1 -0 -0 -0 -1 -2 -2 -2 -1 -2 -2 -2 -2 -1 0 1 1 0 -0 -0 -0 -0 0 0 0 1 1 0 0 0 0 0 0 0 -0 -0 -0 -0 -0 -0 -0 -1 -0 -0 -0 -0 -0 -0 -1 -1 -1 -1 -1 -1
1 1 1 -0 -0 0 2 2 2 1 1 1 1 1 1 2 2 2 2 1 1 1 1 1 0 0 0 0 0 0 0 0 1 1 1 1 1 0 -1 -1 -1 0 1 1 0 -0 -0 -0 -1 -1 -1 -0 -0 -1 -1 -2 -2 -2 -2 -2 -2 -1 0 1 1 1 0 -0 -0 -0 -0 0 1 1 1 1 1 0 0 0 0 0 0 -0 -0 -1 -1 -1 -1 -1 -1 -0 -0 -0 -0 -1 -1 -1 -1 -1 -1 -1 -1
1 1 1 0 -0 0 1 1 1 1 1 1 1 0 1 1 2 2 2 1 1 1 1 1 1 1 0 0 0 0 0 0 1 1 1 1 1 0 -1 -1 -0 0 1 1 0 0 0 -0 -1 -1 -1 -1 -0 -0 -1 -1 -2 -2 -3 -2 -2 -1 0 1 1 0 0 -0 -0 -0 0 0 1 1 1 1 1 1 0 0 0 0 0 -0 -0 -1 -1 -1 -1 -1 -1 -1 -1 -1 -1 -1 -1 -1 -1 -1 -1 -1 -1
1 1 1 0 -0 0 1 1 1 1 1 1 1 1 1 1 1 1 1 0 0 0 0 0 0 0 0 0 0 0 0 0 1 1 1 1 1 0 -0 -0 -0 1 1 1 0 0 0 -0 -1 -1 -1 -1 -1 -1 -1 -1 -2 -3 -3 -2 -1 -0 0 1 0 0 0 0 -0 -0 0 0 1 1 1 1 1 1 1 1 0 0 -0 -0 -0 -1 -1 -1 -1 -1 -1 -1 -1 -1 -1 -1 -1 -1 -1 -1 -1 -0 -1
1 1 1 -0 -0 0 1 1 1 1 1 1 1 1 1 1 1 1 0 -0 -0 0 0 -0 -0 -0 0 0 0 0 0 0 1 1 1 1 1 0 -0 -0 0 1 1 1 1 0 0 -0 -1 -1 -1 -1 -2 -2 -2 -2 -3 -3 -2 -2 -1 -1 -0 0 0 0 0 -0 -0 -0 0 0 0 0 1 1 1 1 1 0 0 0 -0 -0 -0 -1 -0 -0 -0 -0 -1 -1 -1 -1 -1 -1 -1 -1 -1 -1 -1 -1 -0
1 1 1 -0 -0 0 1 1 1 1 1 2 2 2 1 1 1 1 0 0 0 0 0 -0 -0 0 0 0 1 1 1 0 0 0 1 1 1 0 -0 0 0 1 1 1 1 0 0 0 -0 -1 -1 -1 -2 -3 -3 -3 -3 -3 -2 -2 -1 -1 -1 -0 0 -0 -0 -0 -0 -0 0 0 0 0 1 1 1 1 1 0 -0 -0 -0 -0 -0 -1 -0 -0 -0 -0 -1 -1 -1 -1 -1 -1 -1 -1 -1 -1 -1 -1 -1
1 1 1 0 -0 -0 0 0 1 1 1 2 2 2 2 1 1 1 1 1 1 1 0 0 0 0 0 1 1 1 1 0 0 0 0 0 0 0 0 0 1 1 1 1 0 0 1 0 0 0 -0 -1 -2 -3 -4 -4 -3 -2 -2 -2 -2 -1 -1 -1 -0 -0 -0 -1 -0 -0 0 0 0 0 1 1 1 0 0 0 -0 -1 -1 -0 -0 -0 -0 -0 -0 -0 -1 -1 -1 -1 -1 -1 -1 -1 -1 -1 -1 -1 -1
1 1 1 0 0 -0 0 0 1 1 1 2 2 2 1 1 1 1 1 1 1 1 0 0 0 1 1 1 1 0 0 0 0 -0 -0 -0 -0 -0 0 1 1 1 1 0 0 1 1 1 1 0 0 -1 -2 -3 -3 -3 -2 -2 -2 -2 -2 -1 -1 -1 -1 -1 -1 -1 -0 0 0 0 0 0 1 0 0 0 0 0 -0 -1 -1 -0 -0 -0 -0 -0 -0 -1 -1 -1 -1 -1 -1 -1 -0 -0 -0 -0 -1 -1 -1
1 1 1 1 1 0 0 0 1 1 2 2 2 1 1 0 0 1 1 1 1 1 0 0 0 1 1 1 0 0 -0 -0 -0 -0 -0 -1 -0 -0 0 1 1 1 0 0 0 1 1 1 1 1 0 -0 -1 -2 -2 -1 -1 -1 -1 -2 -1 -1 -1 -1 -1 -1 -1 -1 -0 0 1 1 1 0 0 0 -0 -0 -0 -0 -0 -1 -1 -0 -0 -0 -0 -1 -1 -1 -1 -1 -1 -1 -1 -0 -0 -0 -0 -0 -0 -0 -1
1 1 1 1 1 1 1 1 1 1 1 2 2 1 1 1 0 1 0 0 0 0 0 0 1 0 0 0 0 -0 -0 -0 -0 -0 -1 -1 -1 -1 0 1 2 1 1 0 0 1 1 1 1 1 0 0 -0 -0 -1 -1 -1 -1 -1 -1 -1 -1 -1 -1 -1 -1 -1 -1 -0 0 1 1 1 0 0 0 -0 -1 -0 -0 -0 -1 -1 -0 -0 -0 -1 -1 -1 -1 -1 -1 -1 -1 -1 -0 -0 -0 0 -0 -0 -1 -1
1 1 1 1 1 1 1 1 1 1 1 1 1 1 1 1 1 0 0 0 0 0 0 1 1 1 0 0 -0 -0 -0 -0 -0 -0 -1 -1 -1 -1 0 2 2 2 1 1 1 1 1 1 1 1 1 1 1 0 0 -0 -1 -1 -1 -1 -1 -1 -1 -1 -1 -1 -0 -0 -0 0 1 1 1 0 0 -0 -0 -1 -1 -0 -0 -0 -0 -0 -1 -1 -1 -1 -2 -2 -2 -1 -1 -1 -1 -0 -0 -0 -0 -0 -1 -1 -1
1 1 1 1 1 1 1 1 1 1 1 1 1 1 1 1 1 1 0 0 0 0 1 1 1 1 0 0 -0 -0 -0 -0 0 -0 -0 -1 -1 -1 0 2 2 2 2 1 1 1 1 1 1 1 1 1 1 1 1 -0 -1 -1 -1 -1 -1 -1 -1 -1 -1 -1 -1 -0 -0 -0 1 1 1 1 0 0 -0 -0 -1 -0 0 0 0 -0 -0 -1 -1 -1 -2 -2 -2 -1 -1 -1 -0 -0 -0 -0 -0 -1 -1 -1 -1
1 1 1 1 1 1 1 1 1 0 0 1 1 1 1 1 1 1 1 0 0 1 1 1 1 1 1 0 -0 -0 0 0 0 0 -0 -0 -1 -0 1 2 2 2 2 1 1 1 1 1 1 0 0 -0 0 1 0 -0 -1 -1 -1 -1 -1 -1 -1 -1 -1 -1 -1 -0 -0 -0 -0 0 0 1 0 0 0 -0 -0 0 0 0 0 -0 -0 -1 -1 -2 -2 -2 -2 -1 -1 -1 -0 -0 -1 -1 -1 -1 -1 -1 -1
1 1 1 1 1 1 1 1 1 0 0 1 1 1 1 1 1 1 1 1 1 1 1 1 1 1 1 0 0 0 0 1 0 0 0 0 0 0 1 1 2 2 1 1 1 1 1 0 0 -1 -2 -2 -1 0 0 -1 -1 -1 -1 -1 -1 -1 -1 -1 -1 -1 -1 -1 -1 -1 -1 -1 -1 -0 0 0 0 0 0 0 -0 -0 -0 -0 -0 -0 -1 -2 -2 -1 -1 -1 -1 -1 -1 -1 -1 -1 -1 -1 -1 -1 -1
1 1 1 1 1 1 1 1 1 0 0 0 1 1 1 1 1 1 1 1 1 1 1 1 1 1 1 0 0 0 1 1 1 0 0 0 0 0 0 1 1 1 0 -0 -0 0 0 -0 -1 -2 -3 -2 -1 -0 -0 -1 -2 -2 -1 -1 -0 -0 -1 -1 -1 -1 -1 -1 -1 -1 -1 -1 -1 -1 -0 0 0 0 0 0 -0 -1 -1 -0 -0 -1 -1 -1 -1 -1 -1 -1 -1 -1 -1 -1 -1 -1 -1 -1 -1 -1 -1
2 2 1 2 1 1 1 1 1 1 0 0 0 1 1 1 1 1 1 0 0 0 1 1 1 1 0 0 0 0 1 1 1 1 1 1 0 -0 -0 -0 0 0 -0 -1 -0 -0 -1 -2 -3 -4 -3 -1 -0 -0 -1 -1 -2 -1 -1 -0 -0 -0 -0 -1 -1 -1 -0 -0 -0 -0 -0 -0 -0 -0 0 0 0 1 0 0 -0 -1 -1 -0 -0 -1 -1 -1 -1 -0 -1 -1 -1 -1 -1 -1 -1 -1 -1 -1 -1 -1 -1
2 1 1 2 2 1 1 1 1 1 0 0 0 0 0 0 0 0 0 0 0 0 0 0 1 0 0 0 0 0 1 1 1 1 1 1 0 -0 -1 -0 -0 -0 -1 -1 -1 -2 -4 -5 -5 -3 -1 -0 0 -0 -1 -1 -1 -1 -0 0 -0 -0 -0 -1 -1 -1 -1 -0 -0 0 0 0 0 0 1 1 1 1 1 0 -0 -1 -1 -0 -0 -1 -1 -1 -1 -1 -1 -1 -1 -1 -1 -1 -1 -1 -0 -0 -0 -0 -0
1 0 1 2 2 2 1 1 1 1 0 0 0 -0 -1 -0 -0 -0 -0 -0 -0 0 0 0 0 0 0 0 0 1 1 1 1 1 1 1 0 -0 -0 -0 -0 -0 -1 -1 -2 -4 -5 -4 -3 -2 -0 0 -0 -0 -1 -1 -1 -0 0 0 -0 -0 -0 -0 -1 -1 -1 -1 -0 0 0 1 1 1 1 1 1 1 0 0 -0 -1 -1 -1 -1 -1 -1 -0 -0 -1 -1 -1 -1 -1 -1 -1 -1 -1 -0 -0 -0 -0 0
1 0 1 2 2 2 2 2 1 1 0 1 0 -1 -1 -1 -0 -0 -0 -0 -0 -0 -0 0 0 0 0 -0 0 0 1 1 1 1 1 1 1 0 -0 -0 -0 -1 -1 -2 -3 -3 -3 -2 -1 -0 0 0 0 -0 -0 -0 0 0 1 0 -0 -0 -1 -0 -0 -0 -0 -0 -0 -0 0 1 1 1 1 1 0 0 -0 -0 -1 -1 -1 -1 -1 -1 -0 -0 -0 -0 -1 -1 -2 -2 -1 -1 -1 -1 -1 -1 -1 -0 -0
1 0 1 1 2 2 2 2 2 1 1 1 -0 -1 -1 -1 -0 -0 -1 -0 -0 -0 -0 -0 0 -0 -0 -0 -0 0 1 1 1 1 1 1 1 0 -0 -0 -0 -1 -1 -2 -2 -2 -1 -0 -0 0 0 0 0 0 -0 0 0 1 1 0 -0 -1 -1 -1 -0 0 0 0 0 0 1 1 1 1 1 1 0 -0 -1 -1 -1 -1 -0 -1 -1 -0 -0 -0 -0 -0 -1 -1 -2 -2 -1 -1 -1 -1 -1 -1 -1 -1 -1
1 1 1 1 2 2 2 2 2 1 1 1 -0 -1 -1 -1 -0 -1 -1 -0 -0 -0 -0 -0 -0 -1 -1 -1 -0 0 1 1 1 1 2 1 1 1 0 0 -0 -0 -1 -1 -1 -0 0 0 0 0 0 0 0 0 0 0 1 1 0 0 -0 -1 -1 -1 -0 0 1 1 1 1 1 1 1 1 0 0 -0 -1 -1 -1 -1 -1 -0 -0 0 1 1 -0 -1 -1 -2 -2 -2 -1 -1 -1 -1 -1 -1 -1 -1 -1 -1
1 1 1 1 1 1 1 2 2 1 1 0 -0 -1 -1 -1 -1 -0 -0 -1 -0 -0 -0 -0 -0 -1 -1 -1 -0 0 1 1 2 2 2 1 1 1 0 1 1 1 1 1 0 0 1 1 1 0 0 0 0 0 1 1 1 0 0 -0 -0 -1 -1 -0 0 1 1 1 1 1 1 1 1 0 0 -0 -1 -1 -2 -2 -2 -1 -1 0 1 2 1 0 -1 -2 -2 -2 -1 -1 -1 -1 -1 -1 -1 -1 -1 -1 -1
1 1 1 1 1 1 1 1 1 1 1 0 -1 -1 -1 -1 -1 -1 -1 -1 -0 -0 -0 -0 -1 -1 -1 -1 -0 0 1 2 2 2 1 1 1 1 0 1 1 2 2 1 1 1 1 1 1 0 0 0 0 1 1 0 0 0 0 -0 -0 -1 -1 -0 0 1 1 1 1 1 1 1 0 -0 -0 -1 -1 -1 -2 -2 -2 -2 -1 1 2 2 2 0 -1 -2 -2 -1 -1 -1 -0 -1 -0 -0 -0 -1 -1 -1 -1
1 1 1 1 1 0 1 0 0 1 0 -1 -1 -1 -1 -1 -1 -1 -1 -0 -0 0 -0 -0 -0 -1 -1 -0 0 0 1 2 2 2 1 0 -0 -1 -1 -0 1 2 2 1 1 0 0 0 0 0 -0 -0 0 0 0 0 0 0 0 -0 -0 -0 -0 0 1 1 2 2 2 1 1 0 -0 -0 -1 -1 -1 -2 -2 -2 -2 -1 -0 1 2 2 1 -0 -1 -1 -1 -0 -0 -0 -1 -1 -1 -0 -0 -0 -1 -1 -1
1 1 1 1 0 -0 -0 0 1 1 -0 -1 -2 -2 -1 -1 -1 -1 -1 -0 -0 0 -0 -0 -0 -0 -1 -0 -0 0 1 1 1 1 1 -0 -1 -2 -2 -1 1 2 2 2 1 0 0 -0 -0 -1 -1 -0 -0 0 -0 -0 -0 0 0 -0 -0 -0 -0 0 1 2 2 2 2 1 1 0 -0 -1 -1 -1 -2 -2 -2 -2 -2 -1 0 1 2 1 0 -0 -1 -0 -0 -0 -0 -1 -1 -1 -1 -0 -0 -0 -0 -1 -1
1 1 1 0 -1 -1 -1 0 1 0 -1 -2 -2 -2 -1 -1 -1 -1 -1 -1 -0 -0 -0 0 0 -0 -1 -0 -0 0 0 1 1 1 0 -0 -1 -1 -1 -0 1 2 2 2 1 1 0 -1 -1 -1 -1 -0 -0 -0 -1 -0 0 0 -0 -0 -0 -0 0 0 1 2 2 2 2 1 1 -0 -0 -1 -1 -2 -2 -2 -2 -2 -1 -0 1 2 1 1 -0 -1 -1 -0 -0 -0 -0 -1 -1 -1 -1 -1 -0 0 0 -0 -1
2 1 1 -0 -1 -1 -0 1 1 1 -1 -2 -2 -2 -1 -1 -1 -1 -1 -1 -1 -0 0 1 0 -0 -0 -0 -0 0 0 1 1 1 0 0 0 0 0 0 1 1 2 1 1 -0 -1 -2 -2 -1 -0 0 -0 -0 -1 -0 0 0 0 0 -0 -0 0 1 1 2 2 2 1 1 0 -0 -0 -1 -1 -2 -2 -2 -2 -2 -1 0 1 1 1 0 -0 -0 -0 -0 -0 -0 -0 -1 -1 -1 -1 -1 0 0 0 0 -1
2 1 0 -1 -1 -1 -1 1 1 1 -1 -2 -2 -1 -1 -1 -1 -1 -1 -1 -1 -0 1 1 0 -0 -0 -0 0 0 1 1 1 1 1 1 1 1 0 0 0 1 1 -0 -1 -2 -3 -2 -1 -1 0 1 1 0 -0 0 0 0 0 0 0 0 1 1 1 1 2 1 1 1 0 -0 -0 -1 -1 -2 -2 -2 -2 -1 -1 0 1 1 0 0 0 0 0 0 0 0 -0 -0 -1 -1 -1 -1 -0 0 0 0 -1
2 1 -0 -1 -1 -1 -0 1 1 1 -1 -1 -1 -1 -0 -0 -0 -1 -1 -1 -1 -0 1 1 1 -0 -1 -1 0 1 0 1 2 2 1 1 1 0 -0 -0 -0 -1 -1 -2 -3 -4 -3 -1 -1 0 1 1 1 1 0 0 0 0 0 0 0 0 1 1 1 1 1 1 1 0 0 0 -0 -0 -1 -1 -2 -2 -1 -1 -1 -0 0 -0 0 0 1 1 1 1 0 0 0 -0 -1 -1 -1 -1 -0 -0 0 -0 -1
1 1 -0 -1 -1 -1 1 1 1 1 -0 -1 -1 -0 0 1 0 -0 -1 -1 -1 -0 0 1 1 0 -1 -1 -0 0 0 1 2 2 2 2 1 1 -0 -0 -1 -2 -3 -4 -4 -3 -1 0 0 0 1 1 1 1 0 0 0 0 0 0 0 0 1 1 1 1 1 1 1 1 1 1 0 -0 -1 -1 -1 -1 -1 -1 -1 -1 -1 -1 -0 0 1 1 1 0 -0 -0 -0 -1 -1 -1 -2 -2 -1 -1 -1 -1 -1
1 0 -0 -0 -0 0 1 1 1 0 -0 -1 -1 0 1 1 0 -0 -1 -1 -1 -0 0 1 0 -0 -1 -1 -1 0 0 1 2 2 2 2 1 1 0 -1 -2 -3 -3 -3 -2 -0 1 1 1 1 1 1 1 1 0 0 -0 0 0 0 0 1 1 1 1 1 1 1 1 1 1 1 0 -0 -1 -1 -1 -1 -1 -1 -1 -1 -1 -1 -1 -1 -0 -0 -1 -1 -1 -1 -1 -1 -2 -2 -2 -2 -2 -2 -1 -1 -1
1 0 0 0 0 1 1 1 0 -0 -1 -1 -1 0 1 1 0 0 -0 -1 -1 -0 -0 0 0 -0 -1 -1 -1 -0 1 1 2 2 3 2 2 1 1 -1 -1 -2 -2 -1 -0 1 1 1 1 1 0 1 0 0 -0 0 0 0 1 0 0 1 1 1 1 1 1 1 1 1 1 1 0 -1 -1 -1 -0 0 -0 -1 -1 -2 -2 -2 -2 -2 -2 -2 -2 -2 -2 -2 -2 -2 -2 -2 -2 -2 -2 -2 -2 -1 -1
1 0 0 1 1 1 1 1 0 -0 -1 -1 -1 0 1 1 1 0 -1 -1 -1 -0 -0 0 0 -0 -1 -1 -1 -0 1 2 2 2 3 3 2 2 0 -0 -0 1 1 1 1 1 1 1 1 0 -0 -0 -0 -1 -1 -0 -0 0 0 0 0 0 0 1 1 1 1 1 1 1 1 1 -0 -0 -0 -0 0 0 -0 -1 -1 -2 -2 -2 -2 -3 -3 -3 -3 -3 -3 -2 -2 -2 -2 -2 -2 -2 -2 -2 -2 -2 -1
1 1 1 1 1 1 1 0 0 -1 -1 -1 -1 -0 0 1 1 1 -0 -1 -1 0 0 0 -0 -1 -1 -1 -0 0 1 2 2 3 3 3 2 1 -0 -0 1 2 2 2 2 2 2 1 1 -0 -1 -1 -1 -1 -1 -1 -1 -0 0 0 0 0 0 0 1 1 1 1 1 1 1 1 0 -0 0 0 0 0 -0 -1 -1 -2 -2 -2 -2 -3 -3 -3 -3 -3 -3 -2 -2 -2 -2 -2 -2 -2 -2 -2 -2 -2 -2
1 1 1 1 1 1 0 0 -0 -1 -1 -1 -0 0 0 0 1 0 -0 -1 -0 0 1 0 -0 -1 -1 -0 1 1 1 2 2 3 3 1 -0 -2 -2 -0 1 2 3 3 3 2 1 1 0 -0 -1 -2 -2 -2 -2 -1 -1 -0 0 0 0 1 1 0 0 0 0 1 1 1 1 1 0 -0 0 1 0 -0 -1 -1 -1 -1 -1 -1 -2 -2 -2 -2 -2 -2 -2 -2 -2 -2 -2 -2 -2 -2 -2 -2 -3 -3 -2
0 1 1 1 1 0 0 0 -0 -0 -0 0 0 0 -0 0 0 0 -0 -0 -0 0 0 0 -0 -0 -0 0 1 2 2 2 3 3 1 -2 -4 -3 -1 0 1 2 3 3 3 2 1 0 -0 -1 -1 -2 -2 -2 -2 -1 -1 -0 0 0 1 1 1 0 0 0 0 1 1 1 1 0 -0 -0 0 0 0 0 -0 -1 -1 -1 -0 -1 -1 -1 -1 -1 -1 -1 -1 -1 -1 -1 -2 -2 -2 -2 -2 -3 -3 -3 -3
0 1 2 1 1 0 0 -0 -0 -0 0 1 1 0 -0 -0 0 0 -0 -0 0 0 0 0 0 0 0 1 1 2 2 2 2 1 -2 -6 -5 -2 2 2 3 2 3 3 2 1 1 0 -0 -1 -1 -1 -1 -1 -1 -1 -0 0 0 1 1 1 1 1 -0 -0 0 1 1 1 1 0 -0 -0 0 0 0 0 0 -0 -0 -0 0 0 0 0 0 0 -0 -0 -1 -1 -1 -1 -2 -2 -2 -2 -3 -3 -4 -4 -3
0 1 2 1 1 0 -0 -0 0 1 1 1 1 -0 -1 -0 0 -0 -0 0 0 0 0 0 1 1 1 1 1 1 2 2 1 -1 -3 -4 -2 1 3 4 4 3 2 2 2 1 0 -0 -1 -1 -1 -1 -1 -1 -0 0 0 0 0 1 1 1 1 0 -0 -0 0 1 2 1 1 0 -0 0 1 1 1 1 1 0 0 0 0 0 0 1 1 0 0 -0 -1 -1 -1 -2 -2 -2 -2 -3 -3 -3 -3 -3 -3
1 2 2 2 1 0 -0 -0 1 1 2 1 0 -0 -0 0 0 0 0 0 0 0 1 1 1 1 2 1 1 1 1 1 -0 -1 -2 -0 2 4 4 3 3 2 2 2 2 1 1 -0 -1 -1 -1 -1 -1 -0 -0 0 0 0 0 1 1 1 0 -0 -1 -1 0 1 2 2 1 1 1 1 1 1 1 1 1 0 0 -0 -0 -0 -0 -0 -0 -0 -0 -1 -1 -1 -2 -2 -2 -2 -3 -3 -3 -3 -3 -3 -3
1 2 2 1 0 -0 -0 0 1 2 2 1 0 -0 -0 0 1 1 1 1 0 0 1 1 0 1 2 1 0 0 1 -0 -1 -1 0 1 3 4 4 3 2 1 1 1 1 1 0 -0 -1 -1 -1 -1 -1 -0 0 0 0 0 0 0 0 0 -0 -1 -1 -1 1 2 2 2 2 1 1 1 1 1 1 1 0 -0 -0 -1 -1 -1 -1 -1 -1 -1 -1 -1 -1 -1 -2 -2 -2 -2 -2 -2 -2 -2 -2 -2 -2
1 2 1 1 0 -0 -0 1 1 2 2 1 0 -0 -0 0 1 1 1 0 -0 -0 0 1 1 1 1 1 1 1 1 0 -1 -1 1 1 2 2 3 2 2 1 1 1 -0 -1 -1 -1 -2 -1 -1 -1 -1 -1 -0 -0 -0 -0 -0 -0 -0 -0 -1 -1 -1 -0 1 2 3 3 2 2 1 1 1 0 0 0 -0 -1 -1 -1 -1 -1 -1 -1 -1 -1 -1 -1 -1 -1 -2 -2 -2 -2 -2 -2 -2 -2 -2 -2 -1
1 2 1 1 0 -0 0 1 1 1 1 1 -0 -1 -0 0 1 1 0 0 -0 -0 0 1 1 2 1 1 2 1 1 1 0 0 1 2 2 2 1 2 2 1 1 1 -1 -2 -3 -2 -3 -3 -2 -1 -1 -1 -1 -0 -0 -1 -0 -0 -0 -0 -1 -1 -1 0 2 2 3 3 2 1 1 -0 -0 -1 -1 -1 -1 -1 -1 -1 -2 -2 -2 -2 -2 -2 -2 -1 -1 -1 -1 -1 -1 -1 -1 -1 -1 -1 -1 -1 -1
2 2 1 1 0 0 1 1 1 1 1 0 -1 -1 -0 0 0 0 0 0 -0 -0 0 0 1 2 2 2 2 2 1 2 2 3 3 3 2 2 1 0 1 1 2 2 1 -1 -2 -2 -1 -2 -3 -1 -0 -0 -1 0 0 -0 -0 0 0 -0 -1 -1 -1 0 2 2 2 2 1 -0 -1 -2 -2 -2 -1 -1 -1 -1 -1 -1 -1 -1 -2 -2 -2 -2 -2 -2 -1 -1 -1 -1 -1 -1 -0 -0 -1 -1 -1 -1 -1
2 2 1 1 0 0 1 1 1 1 1 0 -0 -0 -0 -0 0 0 0 -0 -1 -1 0 1 1 2 2 2 1 2 2 3 3 3 3 1 1 2 1 0 0 1 1 1 1 1 -0 -1 -1 -1 -1 -0 0 -0 -1 0 0 0 -0 0 0 -0 -1 -1 -1 -0 0 1 1 1 0 -1 -2 -3 -3 -2 -2 -1 -1 -1 -1 -1 -1 -1 -1 -1 -1 -2 -2 -2 -2 -2 -2 -2 -1 -1 -1 -1 -1 -1 -1 -1 -1
2 2 1 1 0 0 0 1 1 1 1 0 0 -0 -0 -0 -0 -0 -0 -0 -1 -0 0 1 1 1 2 2 2 2 2 3 2 2 1 -0 0 1 2 2 2 1 0 -1 -1 -1 -0 -0 -1 -3 -3 0 2 1 -1 0 1 1 -0 -0 0 -0 -1 -2 -2 -1 -1 -0 -0 -0 -0 -1 -1 -2 -3 -2 -1 -1 -1 -1 -1 -1 -1 -1 -1 -1 -1 -1 -1 -1 -2 -2 -2 -2 -2 -2 -1 -1 -1 -1 -1 -1 -1
2 2 1 1 0 0 1 1 1 1 1 0 -0 -0 -0 -0 0 0 0 -0 -0 -0 -0 0 1 1 1 2 2 2 2 2 1 -0 -2 -2 -1 1 2 3 2 2 1 1 0 -1 -1 -1 -1 -1 -4 -3 1 3 1 -1 -1 -0 0 -0 -1 -1 -2 -2 -2 -2 -1 -1 -1 -1 -1 -1 -0 -1 -1 -1 -1 -1 -1 -1 -1 -1 -1 -1 -1 -1 -1 -1 -1 -1 -1 -1 -2 -2 -2 -2 -2 -1 -1 -1 -1 -1 -1
3 2 1 0 0 1 1 1 1 1 1 0 -0 -0 -0 0 0 0 -0 -0 -0 -0 -0 0 0 1 1 1 2 2 1 1 -1 -3 -5 -3 -1 1 2 2 1 1 1 2 2 2 1 -1 -1 -1 -2 -5 -4 -2 2 -0 -2 -3 -2 -1 -1 -1 -2 -3 -3 -2 -1 -1 -0 -0 -0 -0 0 0 0 -0 -1 -1 -1 -2 -2 -2 -1 -1 -1 -1 -1 -1 -1 -1 -1 -1 -1 -1 -2 -1 -1 -1 -1 -1 -1 -2 -2
2 1 0 0 0 1 1 1 1 1 0 -0 -0 -0 -0 0 0 0 0 0 -0 -0 0 0 0 0 1 1 2 2 1 -0 -2 -4 -5 -2 -0 1 2 1 1 0 0 1 1 2 2 1 -1 -2 -1 -3 -6 -7 -4 -0 0 -1 -2 -2 -1 -1 -2 -2 -2 -2 -1 -0 0 0 1 0 0 1 1 0 -0 -1 -1 -1 -2 -2 -1 -1 -1 -1 -1 -1 -1 -1 -1 -1 -1 -1 -1 -1 -1 -1 -1 -1 -2 -2 -3
2 1 0 0 0 0 1 1 1 1 0 -0 -1 -0 -0 -0 0 0 1 0 0 0 1 0 0 0 1 1 1 1 1 -1 -3 -3 -1 1 1 0 1 0 -1 -1 -0 0 1 1 1 2 1 -0 -1 -1 -2 -4 -6 -4 -1 1 1 -0 -1 -2 -2 -2 -2 -1 -0 -0 0 1 1 0 -0 -0 0 0 -0 -1 -1 -1 -1 -1 -1 -1 -1 -1 -1 -1 -1 -1 -1 -1 -1 -1 -1 -1 -1 -1 -1 -1 -2 -2 -3
1 1 0 0 0 0 1 1 1 1 -0 -0 -1 -1 -0 0 0 1 1 1 1 1 1 1 1 1 0 1 1 1 -0 -1 -2 -1 1 2 1 -0 -1 -1 -1 -2 -1 -1 -0 0 0 -0 -0 0 -0 -2 -2 -2 -2 -3 -3 -1 0 1 1 -0 -2 -2 -1 -0 0 0 1 1 1 0 -0 -1 -0 -0 -0 -1 -1 -1 -1 -1 -1 -1 -1 -1 -1 -1 -1 -1 -1 -1 -1 -1 -1 -1 -1 -2 -2 -2 -2 -2 -2
Height
5851 5851 5852 5853 5853 5852 5852 5853 5854 5854 5855 5856 5856 5857 5857 5858 5858 5858 5858 5859 5859 5860 5861 5861 5861 5862 5862 5863 5863 5863 5864 5864 5864 5864 5865 5865 5865 5865 5865 5865 5864 5864 5863 5863 5863 5863 5863 5862 5862 5862 5862 5862 5861 5861 5861 5860 5860 5860 5859 5859 5858 5858 5857 5857 5856 5856 5856 5855 5855 5854 5853 5853 5852 5851 5851 5851 5850 5850 5849 5849 5848 5847 5847 5846 5846 5845 5844 5843 5843 5842 5841 5841 5840 5839 5838 5838 5837 5836 5836 5835 5834 5833 5833
5850 5851 5851 5852 5852 5851 5851 5852 5853 5854 5855 5856 5856 5856 5857 5857 5858 5858 5858 5858 5859 5860 5860 5860 5861 5861 5861 5862 5862 5863 5863 5863 5863 5864 5864 5864 5864 5864 5864 5864 5863 5863 5862 5862 5863 5862 5862 5861 5861 5861 5861 5861 5861 5860 5860 5859 5859 5859 5859 5858 5857 5857 5856 5856 5856 5855 5855 5854 5854 5853 5852 5852 5851 5851 5850 5850 5849 5849 5848 5848 5847 5846 5846 5845 5845 5844 5843 5842 5842 5841 5841 5840 5839 5838 5837 5837 5836 5836 5835 5834 5833 5832 5832
5849 5850 5851 5851 5851 5851 5851 5851 5852 5853 5854 5855 5855 5856 5856 5857 5857 5857 5857 5858 5858 5859 5859 5860 5860 5861 5861 5861 5862 5862 5862 5862 5863 5863 5863 5863 5863 5863 5863 5863 5862 5862 5861 5862 5862 5862 5861 5861 5860 5860 5860 5860 5860 5860 5859 5858 5858 5858 5857 5857 5856 5856 5856 5855 5855 5854 5854 5853 5853 5852 5851 5851 5851 5850 5850 5849 5848 5848 5847 5847 5846 5846 5845 5844 5844 5843 5842 5841 5841 5840 5840 5839 5838 5837 5837 5836 5835 5835 5834 5833 5832 5831 5831
5848 5849 5850 5850 5850 5850 5850 5850 5851 5853 5854 5854 5855 5855 5856 5856 5856 5856 5857 5857 5858 5858 5859 5859 5859 5860 5860 5861 5861 5861 5861 5862 5862 5862 5862 5863 5863 5862 5862 5861 5861 5861 5861 5861 5861 5861 5860 5860 5859 5859 5859 5859 5859 5859 5858 5858 5857 5857 5856 5856 5856 5855 5855 5854 5854 5853 5853 5852 5852 5851 5851 5850 5850 5849 5849 5848 5848 5847 5847 5846 5846 5845 5844 5843 5843 5842 5841 5841 5840 5839 5839 5838 5837 5836 5836 5835 5834 5834 5833 5832 5831 5830 5829
5847 5848 5849 5850 5850 5849 5849 5850 5851 5852 5853 5854 5854 5854 5855 5855 5856 5856 5856 5857 5857 5858 5858 5858 5859 5859 5860 5860 5860 5861 5861 5861 5861 5861 5861 5862 5862 5861 5861 5861 5860 5860 5860 5860 5860 5860 5859 5859 5858 5858 5858 5858 5858 5858 5858 5857 5856 5856 5856 5855 5855 5854 5854 5853 5853 5853 5852 5851 5851 5850 5850 5849 5849 5848 5848 5847 5847 5846 5846 5845 5845 5844 5843 5842 5842 5841 5840 5840 5839 5838 5838 5837 5836 5836 5835 5834 5833 5832 5832 5831 5830 5829 5828
5846 5847 5848 5849 5849 5849 5849 5849 5850 5851 5852 5853 5853 5854 5855 5855 5855 5855 5856 5856 5857 5857 5857 5857 5858 5858 5859 5859 5860 5860 5860 5860 5860 5861 5861 5861 5861 5861 5860 5860 5859 5859 5859 5860 5859 5859 5858 5858 5857 5857 5857 5857 5857 5857 5856 5856 5856 5855 5855 5854 5854 5853 5853 5852 5852 5852 5851 5851 5850 5849 5849 5848 5848 5847 5847 5846 5846 5846 5845 5844 5844 5843 5842 5841 5841 5840 5839 5839 5838 5837 5836 5836 5835 5834 5834 5833 5832 5831 5831 5830 5829 5828 5827
5845 5846 5847 5848 5848 5848 5848 5849 5850 5851 5851 5852 5852 5853 5854 5855 5855 5854 5855 5855 5856 5856 5857 5857 5857 5858 5858 5859 5859 5859 5859 5859 5860 5860 5860 5860 5860 5860 5859 5858 5858 5858 5859 5859 5858 5858 5857 5857 5857 5856 5856 5856 5856 5856 5856 5855 5855 5854 5854 5853 5853 5852 5852 5851 5851 5851 5850 5850 5849 5848 5848 5847 5847 5846 5846 5846 5845 5845 5844 5843 5842 5842 5841 5841 5840 5839 5838 5838 5837 5836 5836 5835 5834 5833 5832 5832 5831 5830 5829 5828 5827 5826 5826
5844 5845 5846 5846 5847 5847 5847 5848 5849 5850 5850 5851 5851 5852 5853 5855 5854 5854 5854 5854 5855 5856 5856 5856 5856 5857 5857 5858 5858 5858 5858 5859 5859 5859 5859 5859 5859 5858 5858 5857 5857 5857 5858 5858 5857 5857 5856 5856 5856 5856 5855 5855 5855 5855 5854 5854 5854 5853 5853 5852 5852 5851 5851 5851 5850 5850 5849 5848 5848 5847 5847 5847 5846 5846 5845 5845 5844 5844 5843 5842 5841 5841 5840 5840 5839 5838 5837 5836 5836 5835 5834 5834 5833 5832 5831 5831 5830 5829 5828 5827 5826 5825 5824
5843 5844 5845 5845 5846 5846 5847 5848 5848 5849 5849 5850 5851 5851 5853 5853 5853 5853 5853 5853 5854 5855 5855 5856 5856 5856 5857 5857 5857 5857 5858 5858 5858 5858 5858 5858 5858 5857 5857 5856 5856 5857 5857 5857 5856 5856 5856 5855 5855 5855 5855 5854 5854 5854 5853 5853 5852 5852 5852 5851 5851 5851 5850 5850 5849 5849 5848 5847 5847 5847 5846 5846 5845 5845 5844 5844 5843 5842 5842 5841 5841 5840 5839 5838 5838 5837 5836 5836 5835 5834 5833 5832 5831 5831 5830 5829 5828 5827 5826 5825 5824 5823 5822
5842 5843 5844 5844 5845 5845 5846 5847 5847 5848 5848 5849 5850 5851 5852 5852 5853 5853 5853 5853 5853 5854 5854 5855 5855 5856 5856 5856 5856 5857 5857 5857 5857 5857 5857 5857 5857 5856 5856 5856 5856 5856 5856 5856 5855 5855 5855 5854 5854 5854 5854 5853 5853 5852 5852 5852 5851 5851 5851 5850 5850 5850 5849 5849 5848 5847 5847 5846 5846 5846 5846 5845 5845 5844 5843 5843 5842 5841 5841 5840 5839 5839 5838 5837 5836 5836 5835 5834 5834 5833 5832 5831 5830 5830 5829 5828 5827 5826 5825 5824 5823 5822 5821
5841 5841 5842 5843 5843 5844 5845 5846 5846 5847 5848 5848 5849 5850 5851 5851 5852 5852 5852 5852 5852 5853 5853 5854 5855 5855 5855 5856 5856 5856 5856 5856 5856 5856 5856 5856 5856 5855 5855 5855 5855 5855 5855 5855 5854 5854 5854 5853 5853 5853 5853 5852 5852 5851 5851 5851 5851 5850 5850 5850 5849 5849 5848 5848 5847 5846 5846 5846 5846 5845 5845 5844 5844 5843 5842 5842 5841 5841 5840 5839 5838 5838 5837 5836 5836 5835 5834 5833 5832 5831 5831 5830 5829 5828 5827 5826 5825 5824 5823 5822 5821 5820 5819
5839 5840 5841 5841 5842 5843 5844 5845 5846 5846 5847 5847 5848 5849 5850 5850 5851 5851 5851 5851 5852 5852 5853 5853 5854 5854 5855 5855 5855 5855 5855 5855 5855 5855 5855 5855 5855 5854 5854 5854 5854 5854 5854 5854 5853 5853 5853 5852 5852 5852 5851 5851 5851 5851 5850 5850 5850 5849 5849 5849 5848 5848 5847 5847 5846 5846 5845 5845 5845 5844 5844 5843 5843 5842 5841 5841 5840 5840 5839 5838 5837 5836 5836 5835 5834 5833 5833 5832 5831 5830 5829 5828 5828 5827 5826 5825 5824 5823 5822 5821 5820 5819 5818
5838 5839 5840 5840 5841 5842 5843 5844 5845 5845 5846 5846 5847 5848 5849 5850 5850 5850 5851 5851 5851 5851 5852 5852 5853 5853 5854 5854 5854 5854 5854 5854 5854 5854 5854 5854 5854 5853 5853 5853 5853 5853 5853 5853 5852 5852 5851 5851 5851 5851 5851 5851 5850 5850 5849 5849 5848 5848 5848 5848 5847 5847 5846 5846 5845 5845 5845 5844 5844 5843 5843 5842 5842 5841 5841 5840 5839 5838 5838 5837 5836 5835 5835 5834 5833 5832 5831 5831 5830 5829 5828 5827 5826 5825 5824 5823 5822 5821 5820 5819 5818 5817 5816
5837 5838 5839 5839 5840 5841 5842 5843 5844 5844 5845 5846 5846 5847 5848 5848 5849 5849 5850 5850 5850 5851 5851 5851 5852 5852 5853 5853 5853 5853 5853 5853 5853 5853 5853 5853 5853 5852 5852 5852 5852 5852 5852 5852 5851 5851 5851 5850 5850 5850 5850 5849 5849 5849 5849 5848 5848 5847 5847 5847 5846 5846 5846 5845 5845 5844 5844 5843 5843 5842 5842 5841 5841 5840 5840 5839 5838 5837 5836 5836 5835 5834 5833 5833 5832 5831 5830 5829 5828 5827 5826 5826 5825 5824 5823 5821 5821 5820 5819 5817 5816 5816 5814
5836 5836 5837 5838 5839 5840 5841 5842 5843 5843 5844 5845 5846 5846 5847 5847 5848 5848 5848 5849 5849 5850 5850 5851 5851 5851 5852 5852 5852 5852 5852 5852 5852 5852 5852 5852 5851 5851 5851 5851 5851 5851 5851 5851 5851 5850 5850 5849 5849 5848 5848 5848 5848 5848 5848 5847 5847 5847 5846 5846 5846 5845 5845 5844 5844 5843 5843 5842 5842 5841 5841 5841 5840 5839 5838 5838 5837 5836 5836 5835 5834 5833 5832 5831 5831 5830 5829 5828 5827 5826 5825 5824 5823 5822 5821 5820 5819 5818 5817 5816 5815 5814 5812
5834 5835 5836 5837 5838 5839 5840 5841 5842 5842 5843 5844 5845 5845 5846 5846 5846 5847 5847 5847 5848 5849 5849 5850 5850 5850 5851 5851 5851 5851 5851 5851 5851 5851 5851 5851 5851 5850 5850 5850 5850 5851 5850 5850 5850 5849 5849 5848 5848 5847 5847 5847 5847 5847 5847 5846 5846 5846 5846 5845 5844 5844 5844 5843 5843 5842 5842 5841 5841 5841 5840 5840 5839 5838 5837 5837 5836 5835 5834 5833 5832 5832 5831 5830 5829 5828 5827 5826 5826 5825 5823 5822 5821 5821 5820 5819 5817 5816 5815 5814 5813 5812 5811
5833 5834 5835 5836 5837 5838 5839 5840 5841 5841 5842 5843 5844 5845 5845 5845 5845 5846 5846 5846 5847 5848 5848 5849 5849 5849 5850 5850 5850 5850 5850 5851 5851 5851 5850 5850 5850 5849 5849 5849 5849 5849 5849 5849 5848 5848 5848 5847 5847 5846 5846 5846 5846 5846 5846 5846 5846 5845 5845 5844 5843 5843 5843 5842 5842 5841 5841 5841 5840 5840 5839 5838 5838 5837 5836 5836 5835 5834 5833 5832 5831 5831 5830 5829 5828 5827 5826 5825 5824 5823 5822 5821 5820 5819 5818 5817 5816 5815 5813 5812 5811 5810 5808
5832 5833 5834 5835 5836 5837 5838 5839 5840 5841 5841 5842 5843 5844 5844 5844 5844 5845 5845 5846 5846 5846 5847 5847 5848 5848 5849 5849 5849 5849 5849 5849 5849 5849 5849 5849 5849 5848 5848 5848 5848 5848 5848 5848 5847 5847 5847 5846 5846 5846 5845 5845 5845 5845 5845 5845 5844 5844 5843 5842 5842 5842 5842 5841 5841 5840 5840 5840 5839 5839 5838 5837 5836 5836 5835 5834 5833 5832 5832 5831 5830 5829 5828 5827 5826 5826 5825 5824 5823 5821 5821 5819 5818 5817 5816 5815 5814 5813 5812 5811 5809 5808 5806
5831 5831 5832 5833 5835 5836 5837 5838 5839 5840 5841 5841 5842 5842 5843 5843 5843 5844 5844 5845 5845 5846 5846 5846 5847 5847 5847 5848 5848 5848 5848 5848 5848 5848 5848 5848 5848 5847 5847 5847 5847 5847 5847 5846 5846 5846 5846 5846 5845 5845 5844 5844 5844 5844 5843 5843 5843 5842 5842 5841 5841 5841 5841 5840 5840 5839 5839 5838 5838 5837 5837 5836 5836 5835 5834 5833 5832 5831 5830 5830 5829 5828 5827 5826 5825 5824 5823 5822 5821 5820 5819 5818 5817 5816 5815 5814 5812 5811 5810 5809 5807 5806 5804
5829 5830 5831 5832 5833 5835 5836 5837 5838 5839 5840 5840 5841 5841 5841 5842 5842 5843 5843 5844 5844 5845 5845 5846 5846 5846 5846 5847 5847 5847 5847 5847 5847 5847 5847 5847 5846 5846 5846 5846 5846 5846 5846 5846 5845 5845 5845 5845 5844 5844 5843 5843 5843 5843 5842 5842 5841 5841 5841 5841 5840 5840 5839 5839 5839 5838 5838 5837 5837 5836 5836 5835 5834 5833 5832 5831 5831 5830 5829 5828 5827 5826 5826 5825 5824 5822 5821 5820 5819 5818 5817 5816 5815 5814 5813 5812 5811 5810 5808 5807 5805 5804 5802
5828 5829 5830 5831 5832 5834 5835 5836 5837 5838 5838 5839 5840 5840 5840 5841 5841 5842 5842 5842 5843 5844 5844 5844 5845 5845 5845 5846 5846 5846 5846 5846 5846 5846 5846 5846 5846 5846 5846 5846 5846 5845 5845 5844 5844 5844 5844 5843 5843 5843 5842 5842 5842 5841 5841 5841 5841 5840 5840 5840 5839 5839 5838 5838 5837 5837 5837 5836 5836 5835 5835 5834 5833 5832 5831 5830 5829 5828 5828 5827 5826 5825 5824 5823 5822 5821 5820 5819 5818 5816 5816 5815 5813 5812 5811 5810 5809 5807 5806 5805 5803 5801 5800
5826 5827 5829 5830 5831 5832 5834 5835 5836 5836 5837 5838 5839 5839 5839 5840 5840 5841 5841 5841 5842 5842 5843 5843 5844 5844 5844 5844 5845 5845 5845 5845 5845 5845 5845 5844 5844 5844 5845 5845 5845 5844 5844 5843 5843 5843 5843 5842 5842 5842 5842 5841 5841 5841 5840 5840 5840 5839 5839 5839 5838 5838 5837 5837 5836 5836 5837 5835 5834 5834 5833 5832 5831 5831 5830 5829 5828 5827 5826 5825 5824 5823 5822 5821 5820 5819 5818 5817 5816 5815 5814 5813 5812 5811 5810 5808 5807 5806 5804 5802 5801 5799 5798
5825 5826 5827 5829 5830 5831 5832 5833 5834 5835 5836 5837 5837 5838 5838 5839 5839 5839 5840 5841 5841 5841 5842 5842 5842 5843 5843 5843 5843 5844 5844 5844 5844 5844 5843 5843 5843 5843 5843 5844 5844 5843 5843 5842 5842 5842 5842 5841 5841 5841 5841 5840 5840 5840 5839 5839 5839 5838 5838 5838 5837 5836 5836 5836 5835 5835 5836 5834 5833 5832 5831 5831 5830 5830 5828 5828 5826 5825 5825 5824 5823 5822 5821 5820 5819 5818 5816 5815 5814 5813 5812 5811 5810 5809 5807 5806 5805 5803 5802 5800 5799 5797 5796
5823 5825 5826 5827 5829 5830 5831 5832 5833 5834 5835 5836 5836 5837 5837 5838 5838 5838 5839 5839 5840 5840 5841 5841 5841 5842 5842 5842 5842 5842 5843 5843 5843 5843 5842 5842 5842 5842 5842 5843 5842 5842 5842 5841 5841 5841 5841 5841 5840 5840 5840 5839 5839 5839 5838 5838 5838 5837 5837 5836 5836 5836 5835 5835 5834 5834 5833 5832 5831 5831 5830 5830 5829 5828 5827 5826 5825 5824 5823 5822 5821 5821 5819 5818 5817 5816 5815 5814 5812 5811 5810 5809 5808 5807 5806 5804 5803 5801 5800 5798 5796 5795 5793
5822 5823 5825 5826 5827 5828 5830 5831 5831 5832 5833 5834 5835 5836 5836 5836 5837 5837 5838 5838 5839 5839 5840 5840 5840 5841 5841 5841 5841 5841 5842 5842 5842 5841 5841 5841 5841 5841 5841 5841 5841 5841 5841 5841 5840 5840 5840 5839 5839 5839 5839 5838 5838 5838 5837 5837 5836 5836 5836 5836 5835 5835 5834 5833 5833 5832 5831 5831 5830 5830 5829 5828 5827 5826 5826 5825 5824 5823 5822 5821 5820 5819 5818 5816 5816 5814 5813 5812 5811 5810 5809 5807 5806 5805 5803 5802 5800 5799 5797 5796 5794 5792 5791
5821 5822 5823 5824 5826 5827 5828 5829 5830 5831 5832 5833 5834 5834 5835 5836 5836 5836 5836 5837 5837 5838 5839 5839 5839 5840 5840 5840 5840 5840 5841 5841 5841 5840 5840 5840 5839 5839 5840 5840 5840 5840 5840 5839 5839 5839 5839 5838 5838 5838 5837 5837 5837 5836 5836 5836 5836 5835 5835 5834 5834 5833 5833 5832 5831 5831 5830 5830 5829 5828 5827 5826 5826 5825 5824 5823 5822 5821 5820 5819 5818 5817 5816 5815 5814 5813 5811 5810 5809 5808 5807 5806 5804 5802 5801 5800 5798 5796 5795 5793 5791 5790 5788
5819 5820 5821 5823 5824 5826 5826 5828 5829 5830 5831 5831 5832 5833 5834 5834 5835 5835 5836 5836 5836 5837 5837 5838 5838 5838 5838 5839 5839 5839 5839 5840 5840 5839 5839 5838 5838 5838 5838 5839 5839 5839 5839 5838 5838 5838 5837 5837 5837 5836 5836 5836 5836 5835 5835 5835 5834 5834 5834 5833 5833 5832 5831 5831 5830 5830 5829 5828 5827 5826 5826 5825 5824 5823 5822 5821 5821 5820 5819 5817 5816 5815 5814 5813 5812 5811 5810 5809 5807 5806 5805 5803 5802 5800 5799 5797 5796 5794 5792 5791 5789 5787 5786
5817 5819 5820 5821 5823 5824 5825 5826 5827 5828 5829 5830 5831 5831 5832 5833 5833 5834 5834 5835 5835 5836 5836 5837 5837 5837 5837 5837 5837 5838 5838 5838 5838 5838 5838 5837 5837 5837 5837 5837 5837 5837 5837 5837 5837 5836 5836 5836 5836 5835 5835 5835 5834 5834 5834 5833 5833 5833 5832 5832 5831 5831 5830 5830 5829 5828 5828 5827 5826 5825 5824 5823 5822 5822 5821 5820 5819 5818 5817 5816 5815 5814 5813 5812 5811 5809 5808 5807 5806 5804 5803 5801 5800 5798 5796 5795 5793 5791 5790 5788 5786 5785 5783
5816 5817 5818 5820 5821 5822 5824 5825 5826 5827 5828 5828 5829 5830 5831 5831 5832 5832 5833 5834 5834 5835 5835 5836 5836 5836 5836 5836 5836 5836 5837 5837 5837 5837 5836 5836 5836 5836 5836 5836 5836 5836 5836 5836 5836 5835 5835 5835 5834 5834 5834 5833 5833 5833 5832 5832 5832 5831 5831 5831 5830 5830 5829 5828 5828 5827 5826 5826 5825 5824 5823 5822 5821 5820 5819 5818 5817 5816 5815 5814 5813 5812 5811 5810 5809 5807 5806 5805 5804 5802 5801 5799 5797 5796 5794 5792 5791 5789 5787 5786 5784 5782 5780
5814 5815 5817 5818 5820 5821 5822 5823 5824 5825 5826 5827 5828 5828 5829 5830 5831 5831 5832 5832 5833 5833 5834 5834 5835 5835 5835 5835 5835 5835 5836 5836 5836 5836 5836 5835 5835 5835 5835 5835 5835 5835 5835 5834 5834 5834 5834 5833 5833 5833 5832 5832 5832 5831 5831 5831 5831 5830 5830 5829 5829 5828 5827 5827 5826 5826 5825 5824 5823 5822 5821 5821 5820 5818 5817 5816 5815 5814 5813 5812 5811 5811 5809 5808 5807 5806 5805 5803 5802 5800 5798 5797 5795 5793 5792 5790 5788 5787 5785 5783 5781 5779 5777
5813 5814 5815 5816 5818 5819 5821 5822 5823 5824 5825 5826 5826 5827 5827 5828 5829 5830 5830 5831 5832 5832 5833 5833 5833 5833 5833 5834 5834 5834 5835 5835 5835 5835 5834 5834 5834 5834 5834 5834 5834 5834 5833 5833 5833 5832 5832 5832 5832 5831 5831 5831 5831 5830 5830 5829 5829 5828 5828 5827 5827 5826 5826 5825 5825 5824 5823 5822 5821 5821 5820 5819 5818 5817 5816 5815 5813 5812 5811 5810 5809 5808 5807 5806 5805 5804 5802 5801 5799 5798 5796 5794 5792 5791 5789 5787 5786 5784 5782 5780 5778 5776 5775
5811 5812 5814 5815 5816 5818 5819 5820 5821 5822 5823 5824 5825 5825 5826 5826 5827 5828 5829 5830 5830 5831 5831 5832 5832 5832 5832 5832 5833 5833 5833 5833 5833 5833 5833 5833 5833 5833 5833 5833 5833 5832 5832 5832 5831 5831 5831 5831 5830 5830 5830 5829 5829 5829 5828 5828 5827 5827 5826 5826 5826 5825 5824 5824 5823 5822 5821 5821 5820 5819 5818 5817 5816 5815 5814 5813 5811 5811 5809 5808 5807 5806 5805 5804 5803 5802 5801 5799 5797 5795 5793 5792 5790 5788 5787 5785 5783 5781 5780 5778 5776 5774 5772
5810 5811 5812 5813 5815 5816 5817 5819 5820 5821 5822 5822 5823 5824 5824 5825 5826 5827 5827 5828 5829 5830 5830 5830 5831 5831 5831 5831 5831 5832 5832 5832 5832 5832 5832 5832 5832 5832 5832 5832 5832 5831 5831 5831 5830 5830 5830 5829 5829 5829 5828 5828 5828 5827 5827 5826 5826 5826 5825 5824 5824 5823 5823 5822 5821 5821 5820 5819 5818 5817 5816 5815 5814 5813 5812 5811 5810 5809 5807 5806 5805 5804 5803 5802 5801 5800 5798 5796 5794 5793 5791 5789 5788 5786 5784 5782 5781 5779 5777 5775 5773 5771 5769
5808 5810 5811 5812 5813 5815 5816 5817 5818 5819 5820 5821 5821 5822 5823 5824 5824 5825 5826 5827 5828 5828 5829 5829 5829 5829 5830 5830 5830 5831 5831 5831 5831 5831 5831 5831 5831 5831 5831 5831 5831 5831 5830 5830 5829 5829 5828 5828 5828 5827 5827 5827 5826 5826 5826 5825 5825 5824 5823 5823 5822 5821 5821 5820 5820 5819 5818 5817 5816 5815 5814 5813 5812 5811 5810 5809 5808 5806 5805 5804 5803 5802 5801 5800 5799 5797 5796 5794 5792 5790 5788 5787 5785 5783 5781 5780 5778 5776 5774 5772 5770 5768 5766
5806 5808 5810 5811 5812 5813 5814 5815 5816 5818 5819 5819 5820 5821 5821 5822 5823 5824 5825 5826 5826 5827 5827 5827 5828 5828 5828 5829 5829 5829 5830 5830 5830 5830 5830 5830 5830 5830 5830 5830 5830 5830 5829 5828 5828 5827 5827 5827 5827 5826 5826 5826 5825 5825 5824 5824 5823 5822 5822 5821 5821 5820 5819 5819 5818 5817 5816 5816 5815 5813 5812 5811 5810 5809 5808 5807 5806 5804 5803 5802 5801 5800 5799 5798 5796 5795 5793 5791 5790 5788 5786 5784 5782 5781 5779 5777 5775 5773 5771 5769 5767 5765 5763
5805 5806 5808 5809 5811 5811 5813 5814 5815 5816 5817 5818 5819 5819 5820 5821 5822 5823 5823 5824 5825 5825 5826 5826 5826 5827 5827 5827 5828 5828 5828 5828 5828 5829 5829 5829 5829 5829 5829 5829 5829 5828 5828 5827 5827 5826 5826 5826 5826 5826 5825 5825 5824 5823 5823 5822 5821 5821 5820 5820 5819 5818 5818 5817 5816 5816 5815 5814 5813 5811 5811 5809 5808 5807 5806 5805 5803 5802 5801 5800 5799 5798 5796 5795 5794 5792 5790 5789 5787 5785 5783 5781 5780 5778 5776 5774 5772 5771 5768 5766 5764 5762 5760
5804 5805 5806 5808 5809 5810 5811 5812 5814 5815 5816 5816 5817 5818 5819 5820 5820 5821 5822 5823 5824 5824 5824 5825 5825 5826 5826 5826 5826 5827 5827 5827 5827 5827 5828 5828 5828 5828 5828 5827 5827 5827 5827 5826 5826 5826 5825 5825 5825 5824 5824 5823 5823 5822 5821 5821 5820 5819 5819 5818 5817 5816 5816 5815 5814 5814 5813 5812 5811 5810 5808 5807 5806 5805 5804 5803 5801 5800 5799 5797 5796 5795 5794 5793 5791 5789 5787 5786 5784 5782 5781 5779 5777 5775 5773 5771 5769 5767 5766 5763 5761 5759 5756
5802 5804 5805 5806 5807 5808 5810 5811 5812 5813 5814 5815 5816 5816 5817 5818 5819 5820 5821 5821 5822 5823 5823 5824 5824 5824 5825 5825 5825 5826 5826 5826 5826 5826 5826 5827 5827 5826 5826 5826 5826 5826 5826 5825 5825 5825 5824 5824 5824 5823 5823 5822 5821 5821 5820 5819 5818 5818 5817 5816 5816 5815 5814 5813 5812 5812 5811 5810 5809 5808 5806 5806 5804 5803 5802 5801 5799 5798 5796 5795 5794 5793 5791 5790 5788 5786 5785 5783 5781 5780 5778 5776 5774 5772 5770 5768 5766 5764 5762 5760 5758 5756 5753
5801 5802 5804 5805 5806 5807 5808 5810 5811 5812 5813 5813 5814 5815 5816 5817 5818 5819 5819 5820 5821 5821 5822 5822 5823 5823 5824 5824 5824 5824 5824 5825 5825 5826 5826 5826 5826 5825 5825 5825 5825 5825 5824 5824 5824 5824 5824 5823 5823 5822 5821 5821 5820 5819 5818 5817 5817 5816 5815 5815 5814 5813 5812 5811 5811 5810 5809 5808 5807 5806 5805 5803 5802 5801 5800 5798 5797 5796 5794 5793 5791 5790 5789 5787 5786 5784 5782 5781 5779 5777 5775 5773 5771 5769 5767 5765 5763 5761 5759 5757 5755 5753 5750
5800 5801 5802 5803 5804 5806 5807 5808 5810 5811 5811 5812 5813 5814 5815 5816 5816 5817 5818 5819 5819 5820 5821 5821 5822 5822 5823 5823 5823 5823 5823 5824 5824 5825 5825 5825 5824 5824 5824 5824 5823 5823 5823 5823 5823 5823 5823 5822 5821 5821 5820 5819 5819 5818 5817 5816 5815 5815 5814 5813 5812 5811 5811 5810 5809 5808 5807 5806 5805 5804 5802 5801 5800 5799 5797 5796 5795 5793 5792 5790 5789 5787 5786 5785 5783 5781 5780 5778 5776 5774 5772 5771 5769 5766 5764 5762 5760 5758 5756 5754 5752 5750 5747
5798 5800 5801 5802 5803 5804 5806 5807 5808 5809 5810 5811 5811 5812 5813 5814 5815 5816 5816 5817 5818 5819 5819 5820 5821 5821 5822 5822 5822 5822 5822 5823 5823 5824 5824 5823 5823 5823 5823 5822 5822 5822 5822 5822 5822 5822 5821 5821 5820 5819 5819 5818 5817 5816 5815 5815 5814 5813 5812 5811 5811 5810 5809 5808 5807 5806 5805 5804 5803 5801 5801 5799 5798 5796 5795 5794 5792 5791 5789 5788 5786 5785 5783 5782 5780 5779 5777 5775 5773 5771 5770 5767 5766 5763 5761 5759 5757 5755 5753 5751 5748 5746 5744
5797 5798 5800 5801 5802 5803 5804 5805 5806 5807 5808 5809 5810 5811 5812 5813 5814 5815 5815 5816 5817 5817 5818 5819 5819 5820 5820 5821 5821 5821 5822 5822 5822 5822 5822 5822 5822 5822 5822 5821 5821 5821 5821 5821 5821 5820 5820 5819 5818 5818 5817 5816 5816 5815 5814 5813 5812 5811 5811 5810 5809 5808 5807 5806 5805 5804 5803 5802 5801 5800 5798 5797 5796 5794 5793 5791 5790 5789 5787 5785 5784 5782 5781 5779 5777 5776 5774 5772 5770 5768 5766 5764 5762 5760 5758 5756 5753 5751 5749 5747 5745 5743 5741
5796 5797 5798 5799 5801 5802 5803 5804 5805 5806 5807 5808 5809 5810 5811 5811 5812 5813 5814 5815 5816 5816 5817 5817 5818 5818 5819 5819 5820 5820 5821 5821 5821 5821 5821 5821 5821 5821 5821 5821 5820 5820 5820 5820 5819 5819 5818 5818 5817 5816 5816 5815 5814 5813 5812 5811 5811 5810 5809 5808 5807 5806 5805 5804 5803 5802 5801 5800 5799 5797 5796 5795 5793 5792 5791 5789 5788 5786 5785 5783 5781 5780 5778 5776 5775 5773 5771 5769 5767 5765 5763 5761 5759 5757 5755 5752 5750 5748 5746 5744 5741 5739 5737
5794 5796 5797 5798 5799 5801 5801 5803 5804 5804 5805 5806 5807 5808 5809 5810 5811 5812 5813 5813 5814 5815 5816 5816 5816 5817 5817 5818 5819 5820 5820 5820 5820 5820 5820 5820 5820 5820 5820 5820 5820 5819 5819 5819 5818 5818 5817 5816 5815 5815 5814 5813 5812 5812 5811 5810 5809 5808 5807 5806 5805 5804 5803 5802 5801 5800 5799 5798 5796 5795 5794 5793 5791 5790 5788 5787 5786 5784 5782 5781 5779 5777 5776 5774 5772 5770 5768 5766 5764 5762 5760 5758 5756 5754 5751 5749 5747 5745 5743 5741 5738 5736 5734
5793 5794 5795 5797 5798 5799 5800 5801 5802 5803 5804 5805 5806 5807 5808 5809 5810 5811 5811 5812 5813 5814 5815 5815 5815 5815 5816 5817 5818 5818 5819 5819 5819 5819 5819 5819 5819 5819 5819 5819 5818 5818 5818 5817 5817 5816 5816 5815 5814 5813 5812 5811 5811 5810 5809 5808 5807 5806 5806 5804 5803 5802 5801 5800 5799 5798 5797 5796 5795 5793 5792 5791 5789 5787 5786 5785 5783 5781 5780 5778 5776 5775 5773 5771 5769 5767 5766 5764 5761 5759 5757 5755 5753 5751 5749 5746 5745 5742 5740 5738 5735 5733 5731
5791 5792 5794 5795 5796 5798 5799 5800 5801 5801 5802 5803 5804 5805 5806 5807 5808 5809 5810 5811 5812 5813 5813 5813 5814 5814 5815 5816 5816 5817 5817 5818 5818 5818 5818 5818 5817 5818 5818 5818 5817 5817 5816 5816 5816 5815 5814 5813 5813 5812 5811 5810 5809 5808 5807 5806 5806 5805 5804 5802 5801 5801 5799 5798 5797 5796 5795 5794 5792 5791 5790 5788 5787 5785 5784 5782 5781 5779 5777 5776 5774 5772 5771 5769 5767 5765 5763 5761 5759 5757 5755 5753 5751 5748 5746 5744 5742 5740 5737 5735 5732 5730 5727
5790 5791 5792 5794 5795 5796 5797 5798 5799 5800 5801 5802 5803 5804 5805 5806 5807 5808 5809 5810 5811 5811 5812 5812 5813 5813 5814 5815 5815 5816 5816 5816 5816 5816 5816 5816 5816 5817 5817 5817 5816 5816 5816 5815 5814 5814 5813 5812 5811 5811 5810 5809 5808 5807 5806 5805 5804 5803 5802 5801 5800 5799 5797 5796 5795 5794 5793 5791 5790 5789 5787 5786 5784 5783 5781 5780 5778 5777 5775 5774 5772 5770 5769 5767 5765 5763 5761 5759 5757 5755 5752 5750 5748 5746 5744 5742 5739 5737 5734 5732 5729 5726 5724
5788 5789 5791 5792 5793 5795 5796 5797 5798 5799 5800 5801 5802 5803 5804 5805 5806 5807 5808 5809 5810 5810 5811 5811 5811 5812 5813 5814 5814 5814 5815 5815 5815 5815 5815 5815 5816 5816 5816 5816 5815 5815 5814 5814 5813 5812 5811 5811 5810 5809 5808 5807 5806 5806 5805 5804 5803 5801 5800 5799 5798 5797 5796 5794 5793 5792 5791 5790 5788 5787 5785 5784 5782 5781 5779 5778 5776 5775 5773 5771 5770 5768 5766 5764 5762 5761 5759 5756 5754 5752 5750 5748 5746 5744 5741 5739 5736 5734 5731 5729 5726 5723 5721
5786 5788 5789 5791 5792 5793 5795 5796 5796 5798 5799 5800 5801 5802 5802 5803 5805 5806 5806 5807 5808 5809 5809 5810 5810 5811 5812 5813 5813 5813 5814 5814 5814 5814 5814 5814 5815 5815 5815 5815 5815 5814 5813 5812 5812 5811 5810 5810 5809 5808 5807 5806 5805 5804 5803 5802 5801 5800 5799 5798 5796 5795 5794 5792 5791 5790 5789 5788 5786 5785 5783 5781 5780 5779 5777 5776 5774 5772 5771 5769 5767 5766 5764 5762 5760 5758 5756 5754 5752 5750 5747 5745 5743 5741 5738 5736 5734 5731 5728 5726 5723 5720 5717
5785 5787 5788 5790 5791 5792 5793 5794 5795 5796 5798 5799 5800 5801 5801 5802 5803 5804 5805 5806 5807 5807 5808 5809 5809 5810 5811 5811 5812 5812 5812 5812 5813 5813 5813 5813 5813 5813 5813 5813 5813 5813 5812 5811 5811 5810 5809 5808 5808 5807 5806 5805 5804 5803 5802 5801 5800 5799 5797 5796 5795 5794 5792 5791 5789 5788 5787 5786 5785 5783 5781 5780 5778 5776 5775 5773 5772 5770 5768 5766 5765 5763 5761 5759 5757 5755 5753 5751 5749 5747 5745 5742 5740 5738 5736 5733 5731 5728 5725 5722 5720 5717 5715
5784 5786 5787 5788 5790 5791 5792 5793 5794 5795 5796 5797 5798 5799 5800 5801 5802 5803 5804 5805 5806 5806 5807 5808 5808 5809 5809 5810 5811 5811 5811 5811 5811 5812 5812 5812 5812 5812 5812 5812 5811 5811 5811 5810 5809 5808 5808 5807 5806 5806 5805 5804 5803 5801 5801 5799 5798 5797 5796 5795 5793 5792 5790 5789 5787 5786 5785 5784 5783 5781 5779 5777 5776 5775 5773 5771 5770 5768 5766 5764 5762 5760 5758 5756 5754 5752 5751 5748 5746 5744 5742 5740 5737 5735 5732 5730 5727 5725 5722 5720 5717 5714 5711
5782 5784 5786 5787 5788 5789 5790 5791 5793 5794 5795 5796 5797 5798 5799 5800 5801 5802 5803 5804 5804 5805 5806 5806 5807 5808 5808 5809 5809 5809 5810 5810 5810 5811 5811 5811 5811 5811 5811 5811 5810 5810 5809 5808 5808 5807 5806 5806 5805 5804 5803 5802 5801 5800 5799 5798 5796 5795 5794 5793 5791 5790 5788 5787 5786 5785 5783 5782 5781 5779 5777 5776 5774 5772 5771 5769 5767 5765 5763 5761 5759 5757 5756 5754 5752 5750 5748 5746 5744 5741 5739 5737 5734 5732 5730 5727 5725 5722 5719 5717 5714 5711 5709
5781 5783 5784 5786 5787 5788 5789 5791 5792 5793 5794 5795 5796 5797 5798 5799 5800 5801 5802 5803 5803 5804 5804 5805 5806 5807 5807 5808 5808 5808 5808 5809 5809 5810 5810 5810 5810 5810 5810 5809 5809 5808 5808 5807 5806 5806 5805 5804 5804 5803 5802 5801 5800 5798 5797 5796 5795 5794 5792 5791 5790 5788 5786 5785 5784 5783 5781 5780 5778 5777 5775 5773 5771 5770 5768 5766 5764 5763 5761 5759 5757 5755 5753 5751 5749 5747 5745 5743 5741 5739 5736 5734 5731 5729 5727 5724 5722 5719 5717 5714 5711 5709 5706
5780 5782 5783 5784 5786 5787 5788 5789 5791 5792 5793 5794 5795 5796 5797 5798 5799 5800 5801 5801 5802 5803 5803 5804 5805 5806 5806 5806 5807 5807 5807 5808 5808 5808 5808 5809 5809 5808 5808 5808 5807 5807 5806 5806 5805 5804 5803 5802 5801 5801 5800 5799 5798 5796 5796 5794 5793 5792 5791 5789 5788 5786 5785 5783 5781 5781 5779 5778 5776 5774 5772 5771 5769 5767 5765 5763 5762 5760 5758 5756 5754 5752 5750 5748 5746 5744 5742 5740 5738 5736 5733 5731 5729 5726 5724 5721 5719 5716 5714 5711 5709 5706 5703
5779 5781 5782 5783 5784 5786 5787 5788 5789 5791 5791 5792 5793 5795 5796 5797 5798 5799 5800 5801 5801 5801 5802 5803 5803 5804 5805 5805 5806 5806 5806 5806 5806 5807 5807 5807 5807 5807 5806 5806 5806 5805 5805 5804 5804 5803 5802 5801 5800 5799 5798 5797 5796 5795 5794 5793 5791 5790 5789 5787 5786 5784 5782 5781 5779 5778 5777 5775 5774 5772 5770 5768 5766 5764 5763 5761 5759 5757 5756 5754 5752 5750 5748 5746 5744 5742 5740 5738 5735 5733 5731 5728 5726 5724 5721 5719 5716 5714 5711 5709 5706 5703 5701
5778 5779 5781 5782 5783 5785 5786 5787 5788 5789 5790 5791 5792 5793 5794 5796 5796 5797 5798 5799 5800 5800 5801 5801 5802 5803 5804 5804 5804 5805 5805 5805 5805 5805 5806 5806 5806 5806 5805 5805 5804 5804 5803 5803 5802 5801 5801 5799 5798 5797 5796 5796 5795 5794 5792 5791 5790 5788 5787 5785 5783 5782 5780 5778 5777 5776 5774 5773 5771 5770 5768 5766 5764 5762 5760 5759 5757 5755 5753 5751 5750 5748 5746 5744 5741 5740 5737 5735 5733 5730 5728 5726 5723 5721 5719 5716 5714 5711 5709 5706 5703 5700 5697
5777 5778 5779 5781 5782 5783 5785 5786 5787 5788 5789 5790 5791 5792 5793 5794 5795 5796 5797 5798 5799 5799 5800 5800 5801 5802 5802 5803 5803 5803 5804 5804 5804 5804 5804 5804 5804 5804 5804 5804 5803 5802 5802 5801 5801 5800 5799 5798 5797 5796 5795 5794 5793 5792 5790 5789 5787 5786 5785 5783 5781 5779 5777 5776 5775 5773 5772 5771 5769 5767 5766 5764 5762 5760 5758 5756 5755 5753 5751 5749 5747 5745 5743 5741 5739 5737 5735 5733 5730 5728 5726 5723 5721 5718 5716 5714 5711 5709 5706 5703 5700 5697 5695
5776 5777 5778 5780 5781 5782 5783 5785 5786 5787 5788 5789 5790 5791 5792 5793 5794 5795 5796 5797 5797 5798 5798 5799 5800 5800 5801 5801 5802 5802 5802 5802 5802 5803 5803 5803 5803 5803 5802 5802 5802 5801 5801 5800 5799 5798 5797 5796 5795 5794 5793 5791 5791 5790 5788 5787 5785 5784 5782 5780 5779 5777 5775 5774 5772 5771 5770 5768 5767 5765 5763 5761 5760 5758 5756 5754 5752 5751 5749 5747 5745 5743 5741 5739 5737 5735 5732 5730 5728 5726 5723 5721 5718 5716 5714 5711 5708 5706 5703 5700 5697 5695 5691
5774 5776 5777 5778 5780 5781 5782 5783 5784 5786 5786 5787 5789 5790 5791 5792 5793 5794 5795 5796 5796 5796 5797 5798 5798 5799 5800 5800 5801 5801 5801 5801 5801 5801 5802 5802 5802 5802 5801 5801 5800 5800 5799 5799 5798 5797 5796 5795 5793 5792 5791 5790 5788 5787 5786 5785 5783 5781 5780 5778 5776 5775 5773 5771 5770 5769 5767 5766 5765 5763 5761 5759 5758 5756 5754 5752 5751 5749 5747 5745 5743 5741 5739 5737 5735 5732 5730 5728 5726 5723 5721 5719 5716 5714 5711 5708 5706 5703 5701 5698 5695 5692 5689
5773 5775 5776 5777 5778 5780 5781 5782 5783 5784 5785 5786 5787 5789 5790 5791 5792 5793 5794 5794 5795 5796 5796 5796 5797 5797 5798 5798 5799 5800 5800 5800 5800 5801 5801 5801 5801 5800 5800 5799 5799 5798 5798 5797 5796 5796 5795 5793 5792 5791 5790 5788 5787 5786 5785 5783 5782 5780 5778 5776 5774 5772 5771 5770 5768 5767 5766 5764 5762 5761 5759 5757 5756 5754 5752 5750 5748 5746 5745 5743 5741 5739 5736 5734 5732 5730 5728 5725 5723 5721 5719 5716 5714 5711 5709 5706 5703 5701 5698 5695 5692 5689 5686
5772 5773 5775 5776 5777 5778 5779 5781 5782 5783 5784 5785 5786 5787 5789 5790 5791 5792 5792 5793 5794 5794 5795 5795 5796 5796 5796 5797 5797 5798 5798 5798 5799 5799 5800 5799 5799 5798 5798 5798 5797 5797 5796 5796 5795 5794 5793 5792 5791 5789 5788 5787 5786 5785 5783 5781 5780 5778 5776 5774 5772 5771 5769 5768 5766 5765 5763 5762 5760 5758 5757 5755 5753 5751 5750 5748 5746 5744 5742 5741 5738 5736 5734 5732 5730 5727 5726 5723 5721 5719 5716 5714 5711 5709 5706 5704 5701 5698 5696 5692 5689 5686 5682